User: anonymous
Location: Churchill
(58.7670°N, 94.1670°W)
Time: 02:05:36
(UTC-05:00)
Language:

Cosmos 2142 Rocket - Orbit

View from above orbital plane
View from above orbital plane
View from above satellite
View from above satellite

Ground track
Ground track

The orbit data is extracted from the following two-line orbital elements,

1 21231U 91029B   14108.47715686  .00000089  00000-0  76631-4 0  4896
2 21231 082.9523 244.6510 0034762 215.8971 209.1570 13.75618096154883
Epoch (UTC): 18 April 2014 11:27:06
Eccentricity: 0.0034762
inclination: 82.9523°
perigee height: 954 km
apogee height: 1005 km
right ascension of ascending node: 244.6510°
argument of perigee: 215.8971°
revolutions per day: 13.75618096
mean anomaly at epoch: 209.1570°
orbit number at epoch: 15488

The dashed part of the orbit path shows where the satellite is in the earth's shadow,  

DLR